| time (UTC) | temp C | wind direction | speed KPH | gust KPH | rain 1hr cm | rain 24hr cm | rain mn cm | humidity % | barometer mb |
| 20260507114011 | 17 | 85 | 0.0 | 0.0 | 0.00 | 0.00 | 0.00 | 40 | 1016.1 |
| 20260507113511 | 17 | 68 | 0.0 | 3.2 | 0.00 | 0.00 | 0.00 | 43 | 1016.1 |
| 20260507113024 | 16 | 103 | 0.0 | 3.2 | 0.00 | 0.00 | 0.00 | 43 | 1016.2 |
| 20260507112511 | 15 | 196 | 0.0 | 3.2 | 0.00 | 0.00 | 0.00 | 47 | 1016.2 |
| 20260507112009 | 15 | 250 | 0.0 | 0.0 | 0.00 | 0.00 | 0.00 | 50 | 1016.3 |
| 20260507111524 | 14 | 260 | 0.0 | 0.0 | 0.00 | 0.00 | 0.00 | 49 | 1016.4 |
| 20260507111008 | 15 | 241 | 0.0 | 0.0 | 0.00 | 0.00 | 0.00 | 49 | 1016.4 |
| 20260507110509 | 15 | 261 | 0.0 | 0.0 | 0.00 | 0.00 | 0.00 | 46 | 1016.4 |
| 20260507105509 | 16 | 258 | 0.0 | 0.0 | 0.00 | 0.00 | 0.00 | 47 | 1016.4 |
| 20260507105013 | 16 | 249 | 0.0 | 0.0 | 0.00 | 0.00 | 0.00 | 47 | 1016.4 |
| 20260507103506 | 16 | 229 | 0.0 | 0.0 | 0.00 | 0.00 | 0.00 | 49 | 1016.4 |
| 20260507103027 | 15 | 248 | 0.0 | 0.0 | 0.00 | 0.00 | 0.00 | 54 | 1016.5 |
| 20260507102508 | 15 | 248 | 0.0 | 0.0 | 0.00 | 0.00 | 0.00 | 50 | 1016.5 |
| 20260507102006 | 15 | 66 | 0.0 | 6.4 | 0.00 | 0.00 | 0.00 | 51 | 1016.6 |
| 20260507101508 | 15 | 1 | 0.0 | 6.4 | 0.00 | 0.00 | 0.00 | 47 | 1016.6 |
| 20260507101005 | 16 | 23 | 0.0 | 0.0 | 0.00 | 0.00 | 0.00 | 50 | 1016.6 |
| 20260507100504 | 15 | 308 | 0.0 | 0.0 | 0.00 | 0.00 | 0.00 | 51 | 1016.6 |
| 20260507100006 | 15 | 56 | 0.0 | 0.0 | 0.00 | 0.00 | 0.00 | 52 | 1016.7 |
| 20260507095503 | 14 | 120 | 0.0 | 0.0 | 0.00 | 0.00 | 0.00 | 56 | 1016.7 |
| 20260507095003 | 14 | 261 | 0.0 | 0.0 | 0.00 | 0.00 | 0.00 | 57 | 1016.7 |
| 20260507094521 | 13 | 251 | 0.0 | 0.0 | 0.00 | 0.00 | 0.00 | 61 | 1016.7 |
| 20260507094006 | 13 | 247 | 0.0 | 0.0 | 0.00 | 0.00 | 0.00 | 59 | 1016.7 |
| 20260507093504 | 14 | 86 | 0.0 | 0.0 | 0.00 | 0.00 | 0.00 | 60 | 1016.7 |
| 20260507093004 | 14 | 86 | 0.0 | 0.0 | 0.00 | 0.00 | 0.00 | 59 | 1016.6 |
| 20260507092504 | 14 | 86 | 0.0 | 0.0 | 0.00 | 0.00 | 0.00 | 59 | 1016.7 |
| 20260507092005 | 15 | 86 | 0.0 | 3.2 | 0.00 | 0.00 | 0.00 | 58 | 1016.7 |
| 20260507091511 | 14 | 34 | 0.0 | 3.2 | 0.00 | 0.00 | 0.00 | 60 | 1016.7 |
| 20260507091006 | 14 | 204 | 0.0 | 6.4 | 0.00 | 0.00 | 0.00 | 63 | 1016.7 |
| 20260507090505 | 13 | 79 | 0.0 | 6.4 | 0.00 | 0.00 | 0.00 | 62 | 1016.7 |
| 20260507090012 | 13 | 30 | 0.0 | 3.2 | 0.00 | 0.00 | 0.00 | 65 | 1016.7 |
| 20260507085504 | 13 | 77 | 0.0 | 3.2 | 0.00 | 0.00 | 0.00 | 65 | 1016.8 |
| 20260507085009 | 13 | 279 | 0.0 | 4.8 | 0.00 | 0.00 | 0.00 | 68 | 1016.8 |
| 20260507084516 | 13 | 256 | 0.0 | 4.8 | 0.00 | 0.00 | 0.00 | 69 | 1016.8 |
| 20260507084003 | 13 | 52 | 0.0 | 0.0 | 0.00 | 0.00 | 0.00 | 71 | 1016.8 |
| 20260507083502 | 12 | 52 | 0.0 | 0.0 | 0.00 | 0.00 | 0.00 | 72 | 1016.8 |
| 20260507083004 | 12 | 39 | 0.0 | 0.0 | 0.00 | 0.00 | 0.00 | 74 | 1016.8 |
| 20260507082503 | 12 | 281 | 0.0 | 0.0 | 0.00 | 0.00 | 0.00 | 76 | 1016.8 |
| 20260507082002 | 12 | 221 | 0.0 | 0.0 | 0.00 | 0.00 | 0.00 | 75 | 1016.8 |
| 20260507080502 | 11 | 54 | 0.0 | 1.6 | 0.00 | 0.00 | 0.00 | 78 | 1016.8 |
| 20260507075506 | 11 | 212 | 0.0 | 0.0 | 0.00 | 0.00 | 0.00 | 81 | 1016.8 |
| 20260507074512 | 10 | 46 | 0.0 | 0.0 | 0.00 | 0.00 | 0.00 | 82 | 1016.7 |
| 20260507073507 | 10 | 252 | 0.0 | 0.0 | 0.00 | 0.00 | 0.00 | 85 | 1016.8 |
| 20260507073017 | 9 | 252 | 0.0 | 0.0 | 0.00 | 0.00 | 0.00 | 87 | 1016.8 |
| 20260507072503 | 8 | 252 | 0.0 | 0.0 | 0.00 | 0.00 | 0.00 | 87 | 1016.8 |
| 20260507072002 | 8 | 74 | 0.0 | 0.0 | 0.00 | 0.00 | 0.00 | 89 | 1016.7 |
| 20260507070502 | 7 | 275 | 0.0 | 0.0 | 0.00 | 0.00 | 0.00 | 91 | 1016.7 |
| 20260507070010 | 6 | 256 | 0.0 | 0.0 | 0.00 | 0.00 | 0.00 | 91 | 1016.7 |
| 20260507065503 | 6 | 256 | 0.0 | 0.0 | 0.00 | 0.00 | 0.00 | 91 | 1016.8 |
| 20260507065004 | 5 | 255 | 0.0 | 0.0 | 0.00 | 0.00 | 0.00 | 91 | 1016.8 |
| 20260507064507 | 5 | 256 | 0.0 | 0.0 | 0.00 | 0.00 | 0.00 | 92 | 1016.8 |
| 20260507064007 | 5 | 255 | 0.0 | 0.0 | 0.00 | 0.00 | 0.00 | 92 | 1016.8 |
| 20260507063509 | 4 | 255 | 0.0 | 0.0 | 0.00 | 0.00 | 0.00 | 92 | 1016.7 |
| 20260507063016 | 4 | 255 | 0.0 | 0.0 | 0.00 | 0.00 | 0.00 | 92 | 1016.7 |
| 20260507062512 | 3 | 255 | 0.0 | 0.0 | 0.00 | 0.00 | 0.00 | 92 | 1016.6 |
| 20260507062008 | 3 | 255 | 0.0 | 0.0 | 0.00 | 0.00 | 0.00 | 92 | 1016.6 |
| 20260507061520 | 3 | 50 | 0.0 | 0.0 | 0.00 | 0.00 | 0.00 | 92 | 1016.6 |
| 20260507061011 | 2 | 112 | 0.0 | 0.0 | 0.00 | 0.00 | 0.00 | 92 | 1016.6 |
| 20260507060005 | 2 | 112 | 0.0 | 0.0 | 0.00 | 0.00 | 0.00 | 92 | 1016.5 |
| 20260507055504 | 2 | 112 | 0.0 | 0.0 | 0.00 | 0.00 | 0.00 | 92 | 1016.6 |
| 20260507055002 | 2 | 112 | 0.0 | 0.0 | 0.00 | 0.00 | 0.00 | 92 | 1016.5 |
| 20260507054508 | 2 | 112 | 0.0 | 0.0 | 0.00 | 0.00 | 0.00 | 92 | 1016.4 |
| 20260507054003 | 2 | 112 | 0.0 | 0.0 | 0.00 | 0.00 | 0.00 | 92 | 1016.4 |
| 20260507053502 | 2 | 112 | 0.0 | 0.0 | 0.00 | 0.00 | 0.00 | 92 | 1016.4 |
| 20260507053010 | 2 | 112 | 0.0 | 0.0 | 0.00 | 0.00 | 0.00 | 92 | 1016.3 |
| 20260507052507 | 1 | 112 | 0.0 | 0.0 | 0.00 | 0.00 | 0.00 | 92 | 1016.3 |
| 20260507052004 | 1 | 112 | 0.0 | 0.0 | 0.00 | 0.00 | 0.00 | 92 | 1016.3 |
| 20260507051008 | 1 | 112 | 0.0 | 0.0 | 0.00 | 0.00 | 0.00 | 92 | 1016.2 |
| 20260507050033 | 1 | 112 | 0.0 | 0.0 | 0.00 | 0.00 | 0.00 | 92 | 1016.2 |
| 20260507045512 | 1 | 112 | 0.0 | 0.0 | 0.00 | 0.00 | 0.00 | 92 | 1016.1 |
| 20260507045009 | 1 | 112 | 0.0 | 0.0 | 0.00 | 0.00 | 0.00 | 92 | 1016.0 |
| 20260507044506 | 1 | 112 | 0.0 | 0.0 | 0.00 | 0.00 | 0.00 | 92 | 1016.0 |
| 20260507044002 | 1 | 112 | 0.0 | 0.0 | 0.00 | 0.00 | 0.00 | 92 | 1016.0 |
| 20260507043504 | 1 | 112 | 0.0 | 0.0 | 0.00 | 0.00 | 0.00 | 92 | 1016.0 |
| 20260507042504 | 1 | 112 | 0.0 | 0.0 | 0.00 | 0.00 | 0.00 | 92 | 1015.9 |
| 20260507042007 | 1 | 112 | 0.0 | 0.0 | 0.00 | 0.00 | 0.00 | 92 | 1015.9 |
| 20260507041524 | 1 | 112 | 0.0 | 0.0 | 0.00 | 0.00 | 0.00 | 92 | 1016.0 |
| 20260507041004 | 1 | 112 | 0.0 | 0.0 | 0.00 | 0.00 | 0.00 | 92 | 1016.0 |
| 20260507040505 | 1 | 112 | 0.0 | 0.0 | 0.00 | 0.00 | 0.00 | 92 | 1016.1 |
| 20260507040019 | 1 | 112 | 0.0 | 0.0 | 0.00 | 0.00 | 0.00 | 92 | 1016.1 |
| 20260507035508 | 1 | 112 | 0.0 | 0.0 | 0.00 | 0.00 | 0.00 | 92 | 1016.0 |
| 20260507035011 | 1 | 112 | 0.0 | 0.0 | 0.00 | 0.00 | 0.00 | 91 | 1016.0 |
| 20260507034523 | 1 | 112 | 0.0 | 0.0 | 0.00 | 0.00 | 0.00 | 92 | 1016.0 |
| 20260507034009 | 1 | 112 | 0.0 | 0.0 | 0.00 | 0.00 | 0.00 | 91 | 1016.0 |
| 20260507033509 | 1 | 112 | 0.0 | 0.0 | 0.00 | 0.00 | 0.00 | 91 | 1016.0 |
| 20260507033024 | 1 | 112 | 0.0 | 0.0 | 0.00 | 0.00 | 0.00 | 91 | 1015.9 |
| 20260507032510 | 1 | 112 | 0.0 | 0.0 | 0.00 | 0.00 | 0.00 | 91 | 1016.0 |
| 20260507032003 | 1 | 112 | 0.0 | 0.0 | 0.00 | 0.00 | 0.00 | 91 | 1016.0 |
| 20260507031510 | 1 | 112 | 0.0 | 0.0 | 0.00 | 0.00 | 0.00 | 91 | 1016.1 |
| 20260507031003 | 1 | 112 | 0.0 | 0.0 | 0.00 | 0.00 | 0.00 | 91 | 1016.0 |
| 20260507030511 | 1 | 112 | 0.0 | 0.0 | 0.00 | 0.00 | 0.00 | 91 | 1016.0 |
| 20260507030026 | 1 | 112 | 0.0 | 0.0 | 0.00 | 0.00 | 0.00 | 91 | 1016.0 |
| 20260507025505 | 2 | 112 | 0.0 | 0.0 | 0.00 | 0.00 | 0.00 | 91 | 1016.0 |
| 20260507025006 | 2 | 112 | 0.0 | 0.0 | 0.00 | 0.00 | 0.00 | 91 | 1016.0 |
| 20260507024525 | 2 | 112 | 0.0 | 0.0 | 0.00 | 0.00 | 0.00 | 91 | 1016.0 |
| 20260507024008 | 2 | 112 | 0.0 | 0.0 | 0.00 | 0.00 | 0.00 | 91 | 1016.0 |
| 20260507023506 | 2 | 112 | 0.0 | 0.0 | 0.00 | 0.00 | 0.00 | 91 | 1015.9 |
| 20260507023022 | 2 | 112 | 0.0 | 0.0 | 0.00 | 0.00 | 0.00 | 91 | 1016.0 |
| 20260507022509 | 2 | 112 | 0.0 | 0.0 | 0.00 | 0.00 | 0.00 | 91 | 1015.9 |
| 20260507022008 | 2 | 112 | 0.0 | 0.0 | 0.00 | 0.00 | 0.00 | 91 | 1015.9 |
| 20260507021522 | 2 | 112 | 0.0 | 0.0 | 0.00 | 0.00 | 0.00 | 91 | 1015.9 |
| 20260507021011 | 2 | 112 | 0.0 | 0.0 | 0.00 | 0.00 | 0.00 | 91 | 1015.9 |
| 20260507020508 | 2 | 112 | 0.0 | 0.0 | 0.00 | 0.00 | 0.00 | 91 | 1015.9 |
| 20260507020012 | 2 | 112 | 0.0 | 0.0 | 0.00 | 0.00 | 0.00 | 91 | 1015.8 |
| 20260507015508 | 2 | 112 | 0.0 | 0.0 | 0.00 | 0.00 | 0.00 | 91 | 1015.8 |
| 20260507015008 | 2 | 112 | 0.0 | 0.0 | 0.00 | 0.00 | 0.00 | 91 | 1015.8 |
| 20260507014517 | 2 | 112 | 0.0 | 0.0 | 0.00 | 0.00 | 0.00 | 91 | 1015.8 |
| 20260507014009 | 2 | 112 | 0.0 | 0.0 | 0.00 | 0.00 | 0.00 | 91 | 1015.8 |
| 20260507013507 | 2 | 112 | 0.0 | 0.0 | 0.00 | 0.00 | 0.00 | 91 | 1015.8 |
| 20260507013021 | 3 | 112 | 0.0 | 0.0 | 0.00 | 0.00 | 0.00 | 91 | 1015.8 |
| 20260507012510 | 3 | 112 | 0.0 | 0.0 | 0.00 | 0.00 | 0.00 | 90 | 1015.8 |
| 20260507012009 | 3 | 112 | 0.0 | 0.0 | 0.00 | 0.00 | 0.00 | 91 | 1015.9 |
| 20260507011522 | 3 | 112 | 0.0 | 0.0 | 0.00 | 0.00 | 0.00 | 90 | 1015.9 |
| 20260507011004 | 3 | 112 | 0.0 | 0.0 | 0.00 | 0.00 | 0.00 | 90 | 1015.8 |
| 20260507010504 | 3 | 112 | 0.0 | 0.0 | 0.00 | 0.00 | 0.00 | 90 | 1015.8 |
| 20260507010008 | 3 | 112 | 0.0 | 0.0 | 0.00 | 0.00 | 0.00 | 90 | 1015.8 |
| 20260507005505 | 3 | 112 | 0.0 | 0.0 | 0.00 | 0.00 | 0.00 | 90 | 1015.8 |
| 20260507005006 | 3 | 112 | 0.0 | 0.0 | 0.00 | 0.00 | 0.00 | 90 | 1015.8 |
| 20260507004519 | 3 | 112 | 0.0 | 0.0 | 0.00 | 0.00 | 0.00 | 90 | 1015.7 |
| 20260507004006 | 3 | 112 | 0.0 | 0.0 | 0.00 | 0.00 | 0.00 | 90 | 1015.8 |
| 20260507003506 | 3 | 112 | 0.0 | 0.0 | 0.00 | 0.00 | 0.00 | 90 | 1015.8 |
| 20260507003022 | 3 | 112 | 0.0 | 0.0 | 0.00 | 0.00 | 0.00 | 89 | 1015.8 |
| 20260507002507 | 3 | 112 | 0.0 | 0.0 | 0.00 | 0.00 | 0.00 | 89 | 1015.9 |
| 20260507002011 | 4 | 112 | 0.0 | 0.0 | 0.00 | 0.00 | 0.00 | 89 | 1015.8 |
| 20260507001523 | 4 | 112 | 0.0 | 0.0 | 0.00 | 0.00 | 0.00 | 89 | 1015.9 |
| 20260507001007 | 4 | 112 | 0.0 | 0.0 | 0.00 | 0.00 | 0.00 | 89 | 1015.9 |
| 20260507000508 | 4 | 112 | 0.0 | 0.0 | 0.00 | 0.00 | 0.00 | 89 | 1015.9 |
| 20260507000026 | 4 | 112 | 0.0 | 0.0 | 0.00 | 0.00 | 0.00 | 89 | 1015.9 |
| 20260506235508 | 5 | 112 | 0.0 | 0.0 | 0.00 | 0.00 | 0.00 | 88 | 1015.9 |
| 20260506235005 | 5 | 112 | 0.0 | 0.0 | 0.00 | 0.00 | 0.00 | 88 | 1015.9 |
| 20260506234512 | 5 | 112 | 0.0 | 0.0 | 0.00 | 0.00 | 0.00 | 88 | 1015.9 |
| 20260506234005 | 5 | 112 | 0.0 | 0.0 | 0.00 | 0.00 | 0.00 | 88 | 1015.8 |
| 20260506233507 | 5 | 112 | 0.0 | 0.0 | 0.00 | 0.00 | 0.00 | 88 | 1015.8 |
| 20260506233014 | 5 | 112 | 0.0 | 0.0 | 0.00 | 0.00 | 0.00 | 87 | 1015.8 |
| 20260506232504 | 5 | 112 | 0.0 | 0.0 | 0.00 | 0.00 | 0.00 | 87 | 1015.8 |
| 20260506232008 | 5 | 112 | 0.0 | 0.0 | 0.00 | 0.00 | 0.00 | 87 | 1015.7 |
| 20260506231518 | 5 | 112 | 0.0 | 0.0 | 0.00 | 0.00 | 0.00 | 87 | 1015.7 |
| 20260506231012 | 5 | 112 | 0.0 | 0.0 | 0.00 | 0.00 | 0.00 | 86 | 1015.7 |
| 20260506230507 | 6 | 112 | 0.0 | 0.0 | 0.00 | 0.00 | 0.00 | 86 | 1015.7 |
| 20260506230027 | 6 | 112 | 0.0 | 0.0 | 0.00 | 0.03 | 0.00 | 86 | 1015.7 |
| 20260506225508 | 6 | 112 | 0.0 | 0.0 | 0.00 | 0.03 | 0.03 | 85 | 1015.7 |
| 20260506225008 | 6 | 112 | 0.0 | 0.0 | 0.00 | 0.08 | 0.03 | 85 | 1015.7 |
| 20260506224525 | 6 | 112 | 0.0 | 0.0 | 0.00 | 0.10 | 0.03 | 85 | 1015.7 |
| 20260506224010 | 6 | 112 | 0.0 | 0.0 | 0.00 | 0.10 | 0.03 | 83 | 1015.6 |
| 20260506223510 | 6 | 347 | 0.0 | 0.0 | 0.00 | 0.10 | 0.03 | 83 | 1015.6 |
| 20260506223009 | 6 | 347 | 0.0 | 0.0 | 0.00 | 0.10 | 0.03 | 83 | 1015.7 |
| 20260506222504 | 6 | 347 | 0.0 | 0.0 | 0.00 | 0.10 | 0.03 | 82 | 1015.7 |
| 20260506222005 | 6 | 347 | 0.0 | 0.0 | 0.00 | 0.10 | 0.03 | 81 | 1015.6 |
| 20260506221514 | 6 | 347 | 0.0 | 0.0 | 0.00 | 0.10 | 0.03 | 80 | 1015.5 |
| 20260506221007 | 7 | 347 | 0.0 | 0.0 | 0.00 | 0.10 | 0.03 | 79 | 1015.4 |
| 20260506220507 | 7 | 347 | 0.0 | 0.0 | 0.00 | 0.10 | 0.03 | 79 | 1015.4 |
| 20260506220023 | 7 | 347 | 0.0 | 0.0 | 0.00 | 0.10 | 0.03 | 78 | 1015.4 |
| 20260506215512 | 7 | 347 | 0.0 | 0.0 | 0.00 | 0.10 | 0.03 | 76 | 1015.4 |
| 20260506215008 | 7 | 347 | 0.0 | 0.0 | 0.00 | 0.10 | 0.03 | 75 | 1015.3 |
| 20260506214524 | 8 | 347 | 0.0 | 0.0 | 0.00 | 0.10 | 0.03 | 74 | 1015.4 |
| 20260506214010 | 8 | 347 | 0.0 | 0.0 | 0.00 | 0.10 | 0.03 | 74 | 1015.4 |
| 20260506213511 | 8 | 347 | 0.0 | 0.0 | 0.00 | 0.10 | 0.03 | 73 | 1015.4 |
| 20260506213027 | 8 | 347 | 0.0 | 0.0 | 0.00 | 0.10 | 0.03 | 72 | 1015.3 |
| 20260506212507 | 8 | 347 | 0.0 | 0.0 | 0.00 | 0.10 | 0.03 | 72 | 1015.3 |
| 20260506212007 | 9 | 347 | 0.0 | 0.0 | 0.00 | 0.10 | 0.03 | 71 | 1015.4 |
| 20260506211530 | 9 | 347 | 0.0 | 0.0 | 0.00 | 0.10 | 0.03 | 70 | 1015.4 |
| 20260506211007 | 10 | 347 | 0.0 | 0.0 | 0.00 | 0.10 | 0.03 | 69 | 1015.4 |
| 20260506210507 | 10 | 347 | 0.0 | 0.0 | 0.00 | 0.10 | 0.03 | 68 | 1015.3 |
| 20260506210015 | 10 | 347 | 0.0 | 0.0 | 0.00 | 0.10 | 0.03 | 67 | 1015.3 |
| 20260506205507 | 10 | 82 | 0.0 | 0.0 | 0.00 | 0.10 | 0.03 | 67 | 1015.2 |
| 20260506205008 | 10 | 45 | 0.0 | 0.0 | 0.00 | 0.10 | 0.03 | 66 | 1015.2 |
| 20260506204519 | 10 | 45 | 0.0 | 0.0 | 0.00 | 0.10 | 0.03 | 66 | 1015.1 |
| 20260506204007 | 10 | 79 | 0.0 | 0.0 | 0.00 | 0.10 | 0.03 | 65 | 1015.1 |
| 20260506203508 | 10 | 79 | 0.0 | 0.0 | 0.00 | 0.10 | 0.03 | 65 | 1015.1 |
| 20260506203023 | 10 | 79 | 0.0 | 0.0 | 0.00 | 0.10 | 0.03 | 64 | 1015.1 |
| 20260506202510 | 10 | 96 | 0.0 | 0.0 | 0.00 | 0.10 | 0.03 | 64 | 1015.1 |
| 20260506202012 | 10 | 106 | 0.0 | 0.0 | 0.00 | 0.10 | 0.03 | 63 | 1015.0 |
| 20260506201536 | 11 | 77 | 0.0 | 0.0 | 0.00 | 0.10 | 0.03 | 63 | 1015.0 |
| 20260506201008 | 11 | 75 | 0.0 | 0.0 | 0.00 | 0.10 | 0.03 | 62 | 1014.9 |
| 20260506200509 | 11 | 97 | 0.0 | 0.0 | 0.00 | 0.10 | 0.03 | 62 | 1014.8 |
| 20260506200026 | 11 | 316 | 0.0 | 0.0 | 0.00 | 0.10 | 0.03 | 62 | 1014.8 |
| 20260506195508 | 11 | 239 | 0.0 | 0.0 | 0.00 | 0.10 | 0.03 | 62 | 1014.7 |
| 20260506195008 | 11 | 253 | 0.0 | 0.0 | 0.00 | 0.10 | 0.03 | 62 | 1014.6 |
| 20260506194515 | 11 | 230 | 0.0 | 0.0 | 0.00 | 0.10 | 0.03 | 61 | 1014.6 |
| 20260506194007 | 11 | 251 | 0.0 | 0.0 | 0.00 | 0.10 | 0.03 | 62 | 1014.5 |
| 20260506193508 | 11 | 255 | 0.0 | 0.0 | 0.00 | 0.10 | 0.03 | 62 | 1014.4 |
| 20260506193025 | 11 | 230 | 0.0 | 0.0 | 0.00 | 0.10 | 0.03 | 62 | 1014.3 |
| 20260506192508 | 11 | 98 | 0.0 | 0.0 | 0.00 | 0.10 | 0.03 | 62 | 1014.4 |
| 20260506192010 | 11 | 250 | 0.0 | 0.0 | 0.00 | 0.10 | 0.03 | 62 | 1014.3 |
| 20260506191524 | 11 | 245 | 0.0 | 0.0 | 0.00 | 0.10 | 0.03 | 61 | 1014.3 |
| 20260506191011 | 11 | 252 | 0.0 | 0.0 | 0.00 | 0.10 | 0.03 | 62 | 1014.2 |
| 20260506190512 | 11 | 250 | 0.0 | 0.0 | 0.00 | 0.10 | 0.03 | 62 | 1014.3 |
| 20260506190029 | 11 | 251 | 0.0 | 0.0 | 0.00 | 0.10 | 0.03 | 62 | 1014.2 |
| 20260506185508 | 11 | 259 | 0.0 | 0.0 | 0.00 | 0.10 | 0.03 | 62 | 1014.2 |
| 20260506185011 | 11 | 259 | 0.0 | 0.0 | 0.00 | 0.10 | 0.03 | 61 | 1014.2 |
| 20260506184527 | 11 | 258 | 0.0 | 0.0 | 0.00 | 0.10 | 0.03 | 61 | 1014.2 |
| 20260506184011 | 11 | 258 | 0.0 | 0.0 | 0.00 | 0.10 | 0.03 | 62 | 1014.2 |
| 20260506183510 | 11 | 82 | 0.0 | 0.0 | 0.00 | 0.10 | 0.03 | 62 | 1014.2 |
| 20260506183018 | 12 | 257 | 0.0 | 0.0 | 0.00 | 0.10 | 0.03 | 61 | 1014.2 |
| 20260506182507 | 12 | 257 | 0.0 | 0.0 | 0.00 | 0.10 | 0.03 | 61 | 1014.1 |
| 20260506182012 | 12 | 241 | 0.0 | 0.0 | 0.00 | 0.10 | 0.03 | 61 | 1014.1 |
| 20260506181522 | 12 | 102 | 0.0 | 0.0 | 0.00 | 0.10 | 0.03 | 60 | 1014.1 |
| 20260506180509 | 12 | 237 | 0.0 | 0.0 | 0.00 | 0.10 | 0.03 | 59 | 1014.0 |
| 20260506180031 | 12 | 261 | 0.0 | 0.0 | 0.00 | 0.10 | 0.03 | 59 | 1013.9 |
| 20260506174531 | 12 | 150 | 0.0 | 0.0 | 0.00 | 0.10 | 0.03 | 58 | 1013.8 |
| 20260506174010 | 12 | 251 | 0.0 | 0.0 | 0.00 | 0.10 | 0.03 | 58 | 1013.8 |
| 20260506173510 | 12 | 228 | 0.0 | 0.0 | 0.00 | 0.10 | 0.03 | 58 | 1013.8 |
| 20260506173028 | 12 | 238 | 0.0 | 0.0 | 0.00 | 0.10 | 0.03 | 58 | 1013.8 |
| 20260506172507 | 12 | 94 | 0.0 | 0.0 | 0.00 | 0.10 | 0.03 | 58 | 1013.7 |
| 20260506172013 | 12 | 241 | 0.0 | 0.0 | 0.00 | 0.10 | 0.03 | 58 | 1013.7 |
| 20260506171539 | 12 | 162 | 0.0 | 1.6 | 0.00 | 0.10 | 0.03 | 58 | 1013.7 |
| 20260506171011 | 12 | 79 | 0.0 | 0.0 | 0.00 | 0.10 | 0.03 | 58 | 1013.7 |
| 20260506170514 | 13 | 264 | 0.0 | 1.6 | 0.00 | 0.10 | 0.03 | 58 | 1013.7 |
| 20260506170024 | 13 | 98 | 0.0 | 6.4 | 0.00 | 0.10 | 0.03 | 57 | 1013.7 |
| 20260506165508 | 12 | 235 | 0.0 | 6.4 | 0.00 | 0.10 | 0.03 | 58 | 1013.7 |
| 20260506165015 | 12 | 236 | 0.0 | 0.0 | 0.00 | 0.10 | 0.03 | 58 | 1013.7 |
| 20260506164531 | 12 | 250 | 0.0 | 0.0 | 0.00 | 0.10 | 0.03 | 57 | 1013.7 |
| 20260506163509 | 12 | 65 | 0.0 | 0.0 | 0.00 | 0.10 | 0.03 | 58 | 1013.7 |
| 20260506163028 | 13 | 81 | 0.0 | 0.0 | 0.00 | 0.10 | 0.03 | 57 | 1013.7 |
| 20260506162509 | 13 | 134 | 0.0 | 0.0 | 0.00 | 0.10 | 0.03 | 58 | 1013.7 |
| 20260506161510 | 13 | 26 | 0.0 | 4.8 | 0.00 | 0.10 | 0.03 | 55 | 1013.6 |
| 20260506161005 | 13 | 47 | 0.0 | 4.8 | 0.00 | 0.10 | 0.03 | 54 | 1013.7 |
| 20260506160505 | 13 | 214 | 0.0 | 0.0 | 0.00 | 0.10 | 0.03 | 53 | 1013.6 |
| 20260506160010 | 13 | 112 | 0.0 | 0.0 | 0.00 | 0.10 | 0.03 | 55 | 1013.7 |
| 20260506155508 | 13 | 53 | 0.0 | 6.4 | 0.00 | 0.10 | 0.03 | 55 | 1013.6 |
| 20260506155004 | 13 | 236 | 0.0 | 6.4 | 0.00 | 0.10 | 0.03 | 56 | 1013.6 |
| 20260506154511 | 13 | 261 | 0.0 | 0.0 | 0.00 | 0.10 | 0.03 | 57 | 1013.6 |
| 20260506154006 | 13 | 74 | 0.0 | 0.0 | 0.00 | 0.10 | 0.03 | 57 | 1013.6 |
| 20260506153505 | 13 | 8 | 0.0 | 8.0 | 0.00 | 0.10 | 0.03 | 57 | 1013.7 |
| 20260506153012 | 13 | 33 | 0.0 | 8.0 | 0.00 | 0.10 | 0.03 | 56 | 1013.8 |
| 20260506152505 | 13 | 20 | 0.0 | 6.4 | 0.00 | 0.10 | 0.03 | 57 | 1013.7 |
| 20260506151511 | 14 | 101 | 0.0 | 6.4 | 0.00 | 0.10 | 0.03 | 54 | 1013.8 |
| 20260506150013 | 13 | 63 | 0.0 | 1.6 | 0.00 | 0.10 | 0.03 | 56 | 1013.7 |
| 20260506145507 | 13 | 64 | 0.0 | 8.0 | 0.00 | 0.10 | 0.03 | 57 | 1013.8 |
| 20260506145007 | 13 | 207 | 0.0 | 11.3 | 0.00 | 0.10 | 0.03 | 55 | 1013.8 |
| 20260506144505 | 13 | 274 | 0.0 | 12.9 | 0.00 | 0.10 | 0.03 | 53 | 1013.9 |
| 20260506144006 | 14 | 79 | 0.0 | 12.9 | 0.00 | 0.10 | 0.03 | 54 | 1013.7 |
| 20260506143505 | 14 | 98 | 0.0 | 1.6 | 0.00 | 0.10 | 0.03 | 55 | 1013.7 |
| 20260506143007 | 14 | 246 | 0.0 | 12.9 | 0.00 | 0.10 | 0.03 | 54 | 1013.7 |
| 20260506142505 | 14 | 60 | 0.0 | 12.9 | 0.00 | 0.10 | 0.03 | 51 | 1013.7 |
| 20260506142007 | 15 | 236 | 0.0 | 8.0 | 0.00 | 0.10 | 0.03 | 51 | 1013.7 |
| 20260506141514 | 14 | 30 | 1.6 | 8.0 | 0.00 | 0.10 | 0.03 | 55 | 1013.7 |
| 20260506141008 | 14 | 53 | 0.0 | 8.0 | 0.00 | 0.10 | 0.03 | 53 | 1013.7 |
| 20260506140024 | 13 | 92 | 0.0 | 12.9 | 0.00 | 0.10 | 0.03 | 54 | 1013.7 |
| 20260506135507 | 14 | 42 | 1.6 | 17.7 | 0.00 | 0.10 | 0.03 | 51 | 1013.8 |
| 20260506135006 | 14 | 245 | 0.0 | 17.7 | 0.00 | 0.10 | 0.03 | 52 | 1013.7 |
| 20260506134514 | 14 | 225 | 3.2 | 17.7 | 0.00 | 0.10 | 0.03 | 52 | 1013.7 |
| 20260506134011 | 15 | 11 | 1.6 | 17.7 | 0.00 | 0.10 | 0.03 | 52 | 1013.7 |
| 20260506133506 | 15 | 34 | 1.6 | 16.1 | 0.00 | 0.10 | 0.03 | 50 | 1013.7 |
| 20260506133020 | 15 | 59 | 0.0 | 8.0 | 0.00 | 0.10 | 0.03 | 49 | 1013.6 |
| 20260506132005 | 14 | 114 | 1.6 | 11.3 | 0.00 | 0.10 | 0.03 | 51 | 1013.6 |
| 20260506130507 | 15 | 217 | 1.6 | 6.4 | 0.00 | 0.10 | 0.03 | 48 | 1013.7 |
| 20260506130013 | 15 | 93 | 0.0 | 12.9 | 0.00 | 0.10 | 0.03 | 49 | 1013.8 |
| 20260506125012 | 15 | 56 | 0.0 | 4.8 | 0.00 | 0.10 | 0.03 | 48 | 1013.7 |
| 20260506124521 | 15 | 237 | 0.0 | 4.8 | 0.00 | 0.10 | 0.03 | 50 | 1013.8 |
| 20260506124006 | 14 | 240 | 0.0 | 9.7 | 0.00 | 0.10 | 0.03 | 52 | 1013.7 |
| 20260506123508 | 15 | 245 | 1.6 | 8.0 | 0.00 | 0.10 | 0.03 | 49 | 1013.8 |
| 20260506123015 | 15 | 229 | 0.0 | 8.0 | 0.00 | 0.10 | 0.03 | 49 | 1013.7 |
| 20260506122510 | 15 | 224 | 0.0 | 8.0 | 0.00 | 0.10 | 0.03 | 49 | 1013.7 |
| 20260506122011 | 14 | 95 | 0.0 | 12.9 | 0.00 | 0.10 | 0.03 | 51 | 1013.8 |
| 20260506121518 | 14 | 62 | 3.2 | 12.9 | 0.00 | 0.10 | 0.03 | 50 | 1013.7 |
| 20260506121010 | 14 | 264 | 0.0 | 8.0 | 0.00 | 0.10 | 0.03 | 51 | 1013.7 |
| 20260506120011 | 14 | 41 | 0.0 | 12.9 | 0.00 | 0.10 | 0.03 | 52 | 1013.7 |
| 20260506115506 | 14 | 190 | 0.0 | 12.9 | 0.00 | 0.10 | 0.03 | 50 | 1013.8 |
| 20260506114531 | 13 | 227 | 0.0 | 8.0 | 0.00 | 0.10 | 0.03 | 52 | 1013.8 |